Theta_e
313 311 311 311 311 313 313 313 313 314 315 313 313 313 314 315 315 315 320 322 327 327 327 326 329 329 330 332 333 332 332 334 336 336 335 333 331 327 326 325 328 334 340 343
310 310 312 313 314 313 313 312 312 313 314 313 313 313 313 314 314 315 316 319 323 327 327 327 327 328 328 330 333 332 332 332 333 335 334 332 328 326 325 326 333 338 341 344
310 312 313 313 312 313 312 312 312 312 313 313 313 312 313 313 314 315 316 317 320 325 327 328 327 328 328 331 332 332 332 332 331 331 330 329 328 327 327 336 342 342 343 344
310 311 313 312 313 313 313 314 315 314 312 311 312 312 311 312 313 313 315 317 318 320 325 325 326 327 329 332 334 333 332 332 332 331 330 329 326 325 325 338 345 344 345 344
309 309 311 312 312 315 315 314 314 314 312 309 310 309 310 311 312 313 313 315 316 320 321 325 325 326 326 332 332 332 332 331 330 329 329 328 325 323 330 334 345 346 346 345
309 311 313 314 314 314 313 313 313 311 309 310 310 310 311 310 311 312 313 314 315 317 322 323 325 325 325 326 331 332 330 329 329 328 327 326 326 324 335 343 348 347 347 347
310 310 314 314 313 312 311 312 314 314 312 312 311 311 311 312 313 314 314 315 315 316 317 320 323 325 325 325 329 329 328 328 327 327 326 325 326 327 330 341 347 347 348 347
310 310 310 314 313 311 312 313 316 316 312 311 313 313 312 313 313 314 314 315 316 317 316 319 323 326 325 326 327 326 328 328 327 326 326 326 328 330 330 341 346 346 347 346
310 312 311 311 311 310 310 310 310 311 311 312 312 312 313 315 317 317 316 316 316 315 318 324 324 325 326 325 324 324 324 323 324 325 327 327 330 332 332 346 349 346 346 345
311 310 310 310 311 311 311 310 311 312 314 315 312 312 313 317 317 315 315 314 314 316 319 326 327 328 328 329 328 328 331 330 325 326 327 331 334 329 332 342 350 346 345 344
310 311 312 310 310 311 312 311 314 315 316 317 315 313 318 316 315 315 314 314 315 317 319 323 325 326 330 329 331 334 333 332 328 330 332 332 332 333 344 352 348 346 347 345
311 310 310 311 310 312 314 314 313 316 316 315 315 315 316 314 313 314 313 313 316 319 320 324 336 336 333 331 330 331 335 328 328 329 334 342 340 347 350 348 348 348 346 344
312 310 312 310 310 311 312 312 311 311 311 314 316 314 313 314 313 314 314 315 315 318 317 317 324 336 335 334 335 338 333 335 340 344 344 345 348 349 350 349 345 341 341 340
312 311 312 312 312 311 312 312 311 311 313 313 314 313 315 315 314 314 312 313 314 314 315 317 320 330 337 339 339 337 342 344 345 344 344 348 348 347 347 344 341 340 339 337
312 313 313 313 312 312 312 312 312 313 312 314 315 315 315 314 313 314 313 313 314 314 315 317 321 323 338 341 341 338 343 343 342 344 346 348 345 345 343 342 341 338 333 332
312 314 313 314 312 313 313 313 313 313 313 313 313 315 314 314 315 314 314 316 316 315 318 317 322 327 335 339 341 342 344 342 344 344 344 344 342 341 341 338 335 335 333 334
313 314 312 312 312 313 313 316 315 314 313 313 313 313 312 313 314 315 315 316 321 321 322 319 323 326 333 332 339 340 342 341 343 341 341 341 340 339 337 334 335 334 333 334
314 313 313 313 313 315 315 314 314 313 312 312 313 312 312 312 312 313 314 318 318 318 320 323 327 329 331 330 338 340 341 342 340 340 339 340 338 335 335 335 334 333 333 331
314 313 314 312 311 313 313 314 314 313 312 311 312 313 313 313 314 313 317 316 316 317 318 320 323 324 327 329 335 340 340 341 341 338 336 335 337 336 335 335 332 332 333 331
309 307 311 313 314 310 312 312 312 310 310 311 312 312 313 312 314 314 314 313 316 317 317 319 321 324 328 331 332 339 338 339 336 335 335 335 336 335 335 332 331 332 333 332
315 313 313 312 312 313 314 313 310 311 308 312 312 311 312 312 311 312 312 314 314 316 317 318 320 324 328 333 335 338 337 336 335 334 334 335 334 333 334 333 331 332 333 333
312 315 311 314 311 312 312 312 315 311 312 313 313 313 313 311 311 311 312 313 314 314 316 317 319 324 326 333 337 338 337 335 333 333 333 333 333 333 333 332 332 333 332 331
311 314 315 314 310 314 314 313 312 313 312 313 313 312 312 311 310 311 311 312 313 314 315 317 319 322 328 330 337 338 336 334 333 332 333 333 333 332 331 332 333 331 331 331
313 313 312 313 315 315 313 312 313 313 312 311 310 311 311 310 311 311 310 312 313 314 315 317 319 323 326 331 337 338 335 333 331 333 332 331 330 331 330 331 331 332 332 331
310 312 315 313 314 313 313 312 312 311 310 310 310 310 310 310 310 311 312 312 314 314 315 317 320 325 326 329 336 338 334 332 331 331 332 331 330 331 332 333 333 331 330 330
312 314 314 316 314 314 314 312 312 311 310 309 308 308 309 309 311 312 312 313 314 315 315 317 322 324 327 333 337 336 333 332 331 332 330 330 330 331 330 329 332 332 330 330
Wind_Speed
10 3 5 11 10 8 8 13 14 15 13 15 13 15 21 18 24 22 33 33 33 41 43 40 48 36 38 38 38 37 33 29 26 27 28 27 28 26 27 31 28 26 28 29
6 6 8 9 9 8 8 14 16 14 10 14 12 19 20 18 19 27 30 31 35 41 42 37 44 49 44 40 41 39 37 37 36 36 35 34 32 31 29 28 26 22 26 29
6 10 12 13 12 13 8 8 12 15 12 15 10 16 23 25 23 27 34 34 33 39 44 42 42 43 48 38 43 44 42 39 34 32 29 31 34 33 30 25 25 25 24 28
6 9 12 9 13 13 12 12 17 15 9 10 6 15 11 18 25 21 28 33 34 35 37 49 49 48 32 35 34 40 35 33 33 32 31 31 35 34 31 28 25 28 25 27
9 12 7 7 10 10 13 18 20 20 13 5 7 8 17 9 19 22 21 32 39 37 36 41 45 43 41 24 32 35 34 32 32 29 28 30 32 31 27 23 28 29 27 25
12 20 4 3 6 9 14 11 17 12 3 10 12 11 18 16 17 21 23 34 40 41 33 31 47 39 37 35 28 33 32 31 31 33 30 32 31 32 27 22 28 29 26 22
7 9 3 4 2 5 6 6 4 4 3 9 11 12 15 13 14 19 20 33 34 42 48 39 37 44 37 36 36 33 33 33 34 36 32 34 33 32 29 28 31 31 28 22
3 6 10 3 4 5 4 4 5 5 6 11 9 6 12 15 17 26 34 33 35 39 47 47 37 42 38 36 35 35 32 30 33 37 36 37 39 34 28 32 33 32 28 23
5 5 13 15 14 14 7 6 10 7 11 3 5 11 12 15 14 21 28 36 42 41 43 27 24 37 29 24 21 24 31 35 38 37 37 40 41 34 32 31 31 31 23 18
4 15 7 13 15 11 5 8 6 4 5 6 6 13 6 14 18 21 23 32 45 41 46 5 5 9 13 16 19 19 20 22 37 36 35 39 35 30 32 32 33 28 21 18
6 2 8 10 4 9 7 5 3 3 3 2 5 2 2 9 7 13 18 34 40 42 45 11 10 8 12 15 18 19 22 20 28 29 32 31 28 27 30 30 28 26 24 21
5 3 5 16 16 12 6 8 3 2 2 4 4 8 7 8 6 11 20 36 37 37 40 20 4 5 7 14 25 30 23 26 27 26 26 23 23 31 31 30 29 30 26 22
2 4 5 6 2 0 1 5 6 4 4 5 7 6 7 7 10 13 14 29 37 36 46 38 17 6 14 16 19 23 28 28 26 26 22 26 31 31 33 34 32 28 24 22
2 4 6 7 13 11 17 18 15 7 3 7 11 19 14 7 8 11 24 27 34 42 41 40 31 10 15 12 19 30 29 26 24 24 26 31 33 33 35 33 29 26 22 20
3 5 9 14 18 20 20 18 17 17 13 8 8 12 9 2 2 4 12 23 28 39 45 45 15 14 13 10 30 31 29 28 26 29 30 31 29 28 28 25 23 21 19 19
5 4 6 13 19 17 19 17 15 14 10 7 11 10 11 7 3 10 13 22 32 37 41 18 13 15 14 11 20 27 32 29 32 30 28 27 27 27 25 21 19 18 18 17
7 4 1 6 12 17 9 4 6 7 9 10 10 6 11 12 11 13 19 23 26 27 37 22 16 19 22 21 9 26 34 33 33 28 27 28 27 25 22 21 20 20 19 19
5 5 2 5 10 4 3 3 3 6 6 10 7 7 12 13 20 24 27 11 26 31 36 35 20 20 23 30 7 33 32 34 32 29 26 26 23 23 22 22 21 20 19 16
6 4 2 2 2 13 11 4 3 5 6 4 4 8 15 21 21 18 6 20 23 28 32 32 27 26 22 20 14 29 31 35 32 26 25 25 25 23 22 21 22 20 20 19
10 7 2 2 3 4 4 2 8 2 4 7 8 7 6 17 10 9 32 34 30 30 30 29 28 33 31 16 18 25 33 33 26 28 25 25 25 21 19 18 19 19 19 18
3 2 5 5 5 7 2 4 7 2 5 12 6 8 10 7 12 29 34 32 26 27 29 29 31 25 27 24 13 27 30 27 29 26 24 26 24 20 19 18 18 15 17 17
2 4 4 3 3 7 8 2 3 8 19 20 9 11 15 17 22 24 28 29 31 30 28 29 28 23 25 26 10 24 27 28 26 26 27 25 23 21 18 15 15 14 17 21
3 4 3 5 5 4 6 13 28 29 27 18 17 12 14 19 23 22 24 29 28 29 29 25 27 25 24 25 16 20 25 25 30 28 27 27 22 18 15 13 14 17 19 21
5 12 5 10 2 1 16 24 14 4 11 20 24 24 19 26 24 21 24 28 27 27 28 27 25 24 27 26 18 26 26 31 32 30 29 21 19 15 14 12 12 15 17 19
13 11 8 12 17 8 8 10 8 12 19 21 22 21 21 25 28 27 29 26 31 28 26 25 22 19 20 29 18 24 25 37 35 32 27 23 19 17 18 15 14 11 11 12
4 4 3 3 22 10 13 10 8 13 16 22 26 29 27 26 27 26 28 27 26 25 28 24 21 20 22 18 23 28 26 38 37 33 27 25 21 19 17 15 15 11 9 10
Wind_Direction
330 355 257 241 242 255 290 299 295 303 324 326 302 292 294 305 299 304 261 244 234 232 244 261 259 259 255 247 227 222 219 221 208 217 232 240 249 254 261 265 265 260 259 253
319 232 250 313 322 322 317 306 301 303 297 289 307 300 294 297 291 293 293 282 238 233 235 245 252 253 260 252 230 221 222 225 231 225 233 240 248 256 262 265 264 261 253 250
323 295 321 320 316 313 281 271 290 286 289 282 301 287 295 294 288 287 287 287 278 234 229 232 241 253 253 249 232 221 215 221 230 233 237 246 256 261 258 251 251 250 249 244
292 292 300 342 327 321 305 316 311 300 283 274 226 277 261 290 294 294 294 294 280 278 246 233 237 245 271 241 222 212 216 225 237 238 241 252 257 255 251 239 245 244 242 241
260 283 281 274 298 355 311 333 304 300 285 313 282 281 285 298 290 292 288 288 290 278 264 250 239 238 241 231 216 220 219 222 232 236 246 266 254 248 251 247 234 235 240 240
247 257 52 70 6 320 315 338 310 287 273 266 276 253 273 272 274 271 278 282 286 288 275 256 239 239 244 244 230 210 213 222 241 252 262 261 250 245 239 232 227 232 229 234
350 335 118 92 356 284 341 6 338 328 315 269 280 281 272 274 294 296 298 295 297 293 289 276 243 238 240 238 230 223 229 233 244 250 250 249 246 243 239 229 228 231 223 227
275 330 318 35 224 236 276 200 210 252 268 280 295 257 277 279 284 285 282 294 290 285 281 279 254 231 230 234 235 246 240 234 241 245 250 251 247 237 234 226 229 229 228 229
348 311 325 323 322 321 280 265 263 288 286 287 252 266 274 349 9 350 345 340 335 333 290 254 260 230 215 209 224 236 245 246 245 245 244 239 235 231 230 220 225 223 226 219
314 306 289 317 329 305 245 287 324 4 315 290 291 287 290 9 354 348 344 339 327 324 316 191 147 171 187 205 216 229 239 248 239 232 233 229 221 226 227 218 216 215 216 201
9 25 304 314 288 325 5 356 41 180 241 246 275 284 90 50 16 336 331 329 325 330 332 281 215 247 222 234 237 244 246 242 222 217 214 218 224 221 207 204 203 207 202 188
19 266 292 298 288 138 162 235 244 219 217 263 233 268 122 122 65 21 324 327 324 322 319 317 146 200 248 251 246 244 234 213 209 207 208 214 204 190 192 193 196 196 189 181
21 310 318 307 129 176 203 242 241 237 241 239 283 271 241 67 25 20 5 326 325 318 309 349 330 301 306 265 224 225 199 195 193 195 202 188 188 190 188 188 185 178 175 174
256 215 218 256 269 274 281 285 282 181 229 276 271 306 13 40 2 36 11 322 334 318 326 318 308 334 312 260 199 177 181 182 186 186 182 180 181 183 180 181 173 172 174 175
180 246 258 275 283 286 286 291 298 299 242 251 314 280 354 127 280 85 329 310 294 305 303 290 309 352 312 238 186 178 176 175 176 173 176 174 175 179 177 175 178 182 180 171
145 266 307 294 286 268 268 271 259 281 331 351 315 314 3 32 311 274 269 289 287 285 303 331 343 345 329 288 207 177 171 164 170 171 173 172 171 173 173 173 164 162 160 173
209 201 10 263 310 304 291 59 4 320 341 335 297 331 340 333 318 317 318 312 315 331 343 341 344 330 358 330 199 175 164 159 163 164 170 169 170 170 170 161 159 170 167 174
179 124 141 277 303 286 125 71 282 322 328 339 325 332 322 325 313 301 295 319 326 335 334 344 348 343 357 329 269 180 162 162 164 165 171 170 173 164 162 160 168 169 173 183
136 162 203 257 277 269 280 86 0 340 312 272 203 319 318 313 313 299 310 339 324 324 328 330 339 339 338 330 300 171 161 157 155 156 162 162 165 165 164 173 174 172 180 184
82 87 133 18 277 262 258 54 9 109 263 182 191 274 344 326 309 306 307 322 320 316 317 315 329 333 337 320 326 172 153 150 149 154 158 162 168 168 170 164 166 184 186 191
168 176 228 236 242 275 12 49 42 85 237 201 209 271 281 270 281 299 301 304 299 301 310 301 323 327 332 321 196 172 150 154 155 156 159 167 166 164 168 166 180 193 193 189
245 192 202 222 235 267 174 108 198 241 301 291 249 243 264 277 289 294 292 291 295 298 297 302 310 328 322 317 230 163 154 160 153 158 164 167 162 164 171 183 183 186 181 171
310 162 217 198 233 238 309 250 254 273 276 303 298 281 262 271 284 288 283 281 289 291 288 287 301 319 321 310 221 172 159 158 156 159 157 156 155 161 165 175 180 172 172 178
298 310 291 309 255 252 274 276 299 296 314 313 307 306 305 303 295 288 277 279 273 281 277 287 302 324 318 313 224 177 163 162 160 153 150 148 148 150 147 141 160 169 173 180
273 296 315 274 286 291 294 339 292 309 318 317 310 310 306 300 290 286 278 274 273 271 282 288 312 304 297 289 219 176 162 165 160 156 154 154 152 156 150 153 152 143 164 178
232 204 257 288 291 265 286 281 312 316 316 316 306 299 297 290 289 279 272 270 272 276 276 287 289 284 290 271 195 180 173 169 162 154 153 154 157 161 158 160 159 156 153 155